Location: Berlise
(49.6641°N, 4.1077°E)
Time: 02:21:36
(UTC+00:00)

YAOGAN 6 - Pass Details

Date: 27 January 2021
Orbit: 465 x 502 km, 97.0° (Epoch: 28 February)

Event Time Altitude Azimuth Distance (km) Brightness Sun altitude
Rises 06:12:13 0° 6° (N) 2,615 6.2 -11.4°
Reaches altitude 10° 06:14:24 10° 358° (N) 1,726 5.2 -11.1°
Maximum altitude 06:17:52 39° 289° (WNW) 776 3.1 -10.5°
Drops below altitude 10° 06:21:19 10° 221° (SW) 1,709 5.1 -10.0°
Sets 06:23:28 0° 213° (SSW) 2,585 6.1 -9.7°
